608  
ASUS42 KTBW 250717  
RWRFL  
FLORIDA REGIONAL WEATHER ROUNDUP  
NATIONAL WEATHER SERVICE TAMPA BAY RUSKIN FL  
300 AM EDT MON MAY 25 2015  
 
NOTE: "FAIR" INDICATES FEW OR NO CLOUDS BELOW 12,000 FEET WITH NO  
SIGNIFICANT WEATHER AND/OR S TO VISIBILITY
.  
 
 
FLZ001>010-012>015-112-114-115-250800-  
PANHANDLE FLORIDA  
 
CITY SKY/WX TMP DP RH WIND PRES REMARKS
 
PENSACOLA MOCLDY 77 73 87 SE12G20 30.10F  
PENSACOLA NAS MOCLDY 79 74 84 SE17G23 30.09S  
MILTON NAS FAIR 72 71 97 E5 30.11 FOG  
CRESTVIEW MOCLDY 72 70 93 E6 30.14F  
DUKE FIELD FAIR 73 70 92 E5 30.12F  
VALPARAISO MOCLDY 79 73 81 SE10 30.12S  
MARY ESTHER PTCLDY 79 72 80 SE8 30.10F  
TRI COUNTY FAIR 73 64 73 E3 30.17S  
PANAMA CITY PTSUNNY 74 67 78 NE6 30.13F  
APALACHICOLA CLOUDY 83 72 69 SE12G23 30.13F  
 
STATION/POSITION SKY/WX TEMP WIND PRES WAVE SWELL
 
AIR SEA DIR/SP/G HT/PER HT/PER  
(F) (DEG/KT/KT) (MB) (FT/S) (FT/S)  
30.1N 87.6W 80 80 140/ 17/ 21 1017.8F 5/ 7  
29.2N 88.2W 77 78 150/ 17/ 31 1018.1F 5/ 7  
28.8N 86.0W 80 80 130/ 14/ 16 1019.7F 4/ 6  
PANAMA CITY BEAC 80 81 100/ 6/ 10 1020.5F  
CAPE SAN BLAS NOT AVBL  
TOWER C 79 110/ 24/ 25 1020.0F  
28.5N 84.5W 81 80 120/ 19/ 23 1019.5F 3/ 4  
 

 
FLZ011-016>038-118-127-128-134-139-239-250800-  
NORTH FLORIDA  
 
CITY SKY/WX TMP DP RH WIND PRES REMARKS
 
MARIANNA CLEAR 75 67 76 E8 30.16F  
TALLAHASSEE PTCLDY 77 67 71 E9 30.17F  
PERRY CLEAR 73 70 88 E3 30.19S  
CROSS CITY N/A 74 70 87 E3 30.17F  
LAKE CITY FAIR 70 70 100 E5 30.20S  
GAINESVILLE MOCLDY 71 69 93 CALM 30.19F  
MAYPORT NAS PTCLDY 75 73 93 SE7 30.20F  
JACKSONVILLE MOCLDY 72 70 93 E3 30.20F  
JAX NAS CLEAR 78 71 79 NE6 30.20F  
JAX CRAIG PTCLDY 74 70 87 CALM 30.20F  
JAX CECIL CLEAR 68 68 100 CALM 30.20F  
FERNANDINA BEA PTSUNNY 79 73 83 SE8 30.20S  
ST AUGUSTINE MOCLDY 75 72 90 VRB5 30.20F  
 
STATION/POSITION SKY/WX TEMP WIND PRES WAVE SWELL
 
AIR SEA DIR/SP/G HT/PER HT/PER  
(F) (DEG/KT/KT) (MB) (FT/S) (FT/S)  
SHELL POINT 78 110/ 13/ 23 N/A  
KEATON BEACH 73 80/ 8/ 10 1021.9F  
CEDAR KEY 76 80/ 12/ 14 1021.9F  
FERNANDINA 75 79 120/ 6/ 10 1022.6F  
30.7N 81.3W 77 N/A 5/ 8  
MAYPORT 75 77 110/ 4/ 6 1023.3F  
31.4N 80.9W 75 75 100/ 12/ 14 1023.6F 6/ 8 5/ 8  
ST AUGUSTINE 75 77 120/ 8/ 9 1023.0F  
 

 
FLZ040-043>046-052-053-057-058-063-144-250800-  
INTERIOR CENTRAL FLORIDA  
 
CITY SKY/WX TMP DP RH WIND PRES REMARKS
 
OCALA CLEAR 72 68 88 NE3 30.19S  
THE VILLAGES N/A 72 72 100 NE3 30.09S  
LEESBURG CLEAR 73 71 93 E3 30.19S  
SANFORD CLEAR 73 70 90 CALM 30.17F  
ORLANDO EXEC CLEAR 73 69 87 E6 30.17F  
ORLANDO INTL PTCLDY 74 70 87 E5 30.17F  
WINTER HAVEN CLEAR 76 72 87 E5 30.18F  
LAKELAND CLEAR 72 70 94 CALM 30.17F  
BARTOW FAIR 72 N/A N/A CALM 30.18S  
OKEECHOBEE PTCLDY 70 68 94 CALM 30.16S  
 

 
FLZ041-047-054-059-064-141-147-250800-  
EAST CENTRAL FLORIDA  
 
CITY SKY/WX TMP DP RH WIND PRES REMARKS
 
DAYTONA BEACH PTCLDY 76 71 85 CALM 30.18F  
DELAND N/A 72 70 94 CALM 30.19F  
JFK SPACE CTR PTCLDY 77 72 83 SE6 30.16F  
CAPE CANAVERAL CLEAR 77 69 75 SE9 30.16S  
PATRICK AFB PTCLDY 79 71 78 SE17 30.16F  
MELBOURNE PTCLDY 79 70 74 SE8 30.16F  
VERO BEACH MOCLDY 80 70 71 E8G20 30.15F  
FT PIERCE MOCLDY 80 71 74 E14 30.15F  
STUART MOCLDY 77 70 78 SE9 30.15F  
 
STATION/POSITION SKY/WX TEMP WIND PRES WAVE SWELL
 
AIR SEA DIR/SP/G HT/PER HT/PER  
(F) (DEG/KT/KT) (MB) (FT/S) (FT/S)  
28.5N 80.2W 80 80 120/ 16/ 17 1021.7F  
28.9N 78.5W 78 79 100/ 14/ 16 1022.5F  
TRIDENT PIER 78 82 100/ 7/ 12 1022.3F  
28.4N 80.5W 80 N/A 3/ 8  
27.5N 80.2W 82 N/A 4/ 5  
 

 
FLZ050-056-061-142-242-148-248-149-249-151-251-155-255-  
160-260-250800-  
WEST CENTRAL FLORIDA  
 
CITY SKY/WX TMP DP RH WIND PRES REMARKS
 
CRYSTAL RIVER FAIR 72 70 94 CALM 30.17F  
INVERNESS FAIR 72 72 100 CALM 30.18F  
BROOKSVILLE CLEAR 72 67 84 E3 30.18S  
CLEARWATER CLEAR 76 72 87 SE10 30.15F  
TAMPA INTL PTCLDY 77 70 79 E3 30.16F  
TAMPA EXEC CLEAR 73 72 94 CALM 30.17F FOG  
PLANT CITY CLEAR 73 73 100 CALM 30.18F  
MACDILL AFB CLEAR 76 74 96 E8 30.15F  
PETER O KNIGHT CLEAR 77 73 88 E5 30.17S  
ST PETERSBURG CLEAR 79 73 82 SE16 30.14F  
SARASOTA CLEAR 75 72 90 E10 30.13F  
VENICE FAIR 75 73 94 E8 30.15S  
 
STATION/POSITION SKY/WX TEMP WIND PRES WAVE SWELL
 
AIR SEA DIR/SP/G HT/PER HT/PER  
(F) (DEG/KT/KT) (MB) (FT/S) (FT/S)  
CEDAR KEY 76 80/ 12/ 14 1021.9F  
28.5N 84.5W 81 80 120/ 19/ 23 1019.5F 3/ 4  
27.3N 84.2W 82 N/A 3/ 4  
CLEARWATER BEACH 79 84 110/ 13/ 16 1021.2F  
MIDDLE TAMPA BAY 78 140/ 9/ 12 1021.4F  
VENICE 76 85 80/ 6/ 8 1020.2F  
 

 
FLZ066-069-070-075>078-162-262-165-265-250800-  
SOUTHWEST FLORIDA AND KEYS  
 
CITY SKY/WX TMP DP RH WIND PRES REMARKS
 
PUNTA GORDA CLEAR 72 71 97 NE3 30.16F  
FT MYERS PTCLDY 75 72 90 E5 30.13S  
SOUTHWEST INTL MOCLDY 74 71 91 NE5 30.14S  
NAPLES CLOUDY 76 72 87 E8 30.12F  
MARCO ISLAND N/A 73 68 83 E5 30.12S  
IMMOKALEE SUNNY N/A N/A N/A CALM 30.14F  
MARATHON PTCLDY 79 74 84 E9 30.09F  
KEY WEST NAS PTCLDY 81 74 79 E15 30.09S  
KEY WEST INTL MOCLDY 81 75 82 E14 30.09F  
 
STATION/POSITION SKY/WX TEMP WIND PRES WAVE SWELL
 
AIR SEA DIR/SP/G HT/PER HT/PER  
(F) (DEG/KT/KT) (MB) (FT/S) (FT/S)  
VENICE 76 85 80/ 6/ 8 1020.2F  
NAPLES 77 84 90/ 4/ 7 1020.1F  
26.0N 85.6W 81 81 110/ 14/ 16 1018.4F 4/ 6  
DRY TORTUGAS 83 120/ 17/ 18 1018.8F  
NW FL BAY 83 110/ 17/ 20 1019.5  
SAND KEY 81 90/ 17/ 20 1018.6F  
SOMBRERO KEY 80 100/ 16/ 18 1019.4S  
LONG KEY 82 84 110/ 15/ 17 1019.6F  
MOLASSES REEF 81 83 90/ 17/ 19 1018.9F  
 

 
FLZ067-068-071>074-168-172>174-250800-  
SOUTHEAST FLORIDA  
 
CITY SKY/WX TMP DP RH WIND PRES REMARKS
 
W PALM BEACH PTCLDY 80 73 79 E16 30.14F  
FT LAUDER-EXEC PTCLDY 80 72 76 E13 30.12F  
FT LAUDERDALE PTCLDY 80 73 79 E13 30.12F  
POMPANO BEACH PTCLDY 81 72 74 E15 30.12F  
PEMBROKE PINES MOCLDY 80 72 76 E8 30.13F  
OPA LOCKA CLEAR 80 72 76 E10 30.12F  
MIAMI MOCLDY 81 72 74 E13 30.12F  
WEST KENDALL PTCLDY 81 73 76 E14G20 30.12F  
HOMESTEAD PTCLDY 81 73 76 E14G21 30.11F  
 
STATION/POSITION SKY/WX TEMP WIND PRES WAVE SWELL
 
AIR SEA DIR/SP/G HT/PER HT/PER  
(F) (DEG/KT/KT) (MB) (FT/S) (FT/S)  
PORT EVERGLADES 81 90/ 10/ 14 1019.9F  
VIRGINIA KEY 82 83 90/ 15/ 18 1019.8F  
LAKE WORTH 79 83 110/ 9/ 12 1020.5F  
SETTLEMENT POINT 80 110/ 13/ 15 1021.2F  
 

 
 
CLICK HERE TO GO TO PREVIOUS BULLETINS.

The Nexlab FL Page Main Text Page